Вернуться в каталог

ONEWEB-0463

АктивенСвязьPO
NORAD 51650·PAYLOAD·🇬🇧 United Kingdom

Запущен Feb 10, 2022 с Guiana Space Centre

Loading…

Ближайшие Пролёты (ближайшие 24 часа)

TLE

СвежийSource: CelesTrak SupGP

Эпоха: Sep 14, 2026, 21:35 UTC

1 51650C 22012AE  26257.89947176 -.00002589  00000+0 -66774-2 0  2571
2 51650  87.9194 348.0626 0001747 105.9538 293.6655 13.17651105    13

Отслеживайте ONEWEB-0463 в реальном времени с AllMySat

Download on the App Store